Location: Lawrence Hall of Science
(37.8785°N, 122.2415°W)
Time: 08:40:33
(UTC-07:00)

Cosmos 2151 - Visible Passes

Search period start: 06 July 2015 00:00
Search period end: 16 July 2015 00:00
Orbit: 583 x 605 km, 82.5° (Epoch: 06 July)

Date Brightness Start Highest point End Pass type
(mag) Time Alt. Az. Time Alt. Az. Time Alt. Az.
06 Jul 6.7 21:26:52 10° WNW 21:27:29 10° WNW 21:27:49 10° WNW visible
13 Jul 6.3 05:13:56 10° NE 05:15:52 13° ENE 05:18:00 10° E visible
14 Jul 5.9 05:22:26 10° NNE 05:25:33 20° ENE 05:28:46 10° ESE visible
